"2022-07-22 00:01:00",3035205,3.012,282.6605,5.306556,0.3238353,3.66,0,1.459334,282.6082,13.31425,0.3662871,1.99,0,-999,0,15.3,85.3,15.4,15.4,0.2,0,0,16.59,13.28,0.2,102.253,2.85,2.85,2.849,100,0,0,0,186.8,105.7,105.7
"2022-07-22 00:02:00",3035206,2.586666,284.8101,7.54175,0.4313029,3.36,0,1.906,282.0983,10.92976,0.3191197,2.48,0,-999,0,15.3,85.3,15.4,15.4,0.2,0,0,16.58,13.28,0.2,102.251,2.848,2.85,2.848,100,0,0,0,186.8,105.7,105.7
"2022-07-22 00:03:00",3035207,2.835333,283.0657,3.956597,0.3927827,3.44,0,1.854667,281.2613,13.11303,0.3381098,2.6,0,-999,0,15.3,85.1,15.4,15.4,0.2,0,0,16.56,13.28,0.2,102.2507,2.849,2.849,2.848,100,0,0,0,186.8,105.7,105.7
"2022-07-22 00:04:00",3035208,3.168666,285.5345,5.570257,0.436545,3.73,0,1.764,283.4843,12.29081,0.4525748,2.7,0,-999,0,15.31,85.1,15.4,15.39,0.2,0,0,16.56,13.28,0.2,102.25,2.848,2.849,2.848,100,0,0,0,186.8,105.7,105.7
"2022-07-22 00:05:00",3035209,3.47,287.9278,5.477521,0.3999167,4.15,0,1.937334,280.8039,6.428754,0.4015714,2.67,0,-999,0,15.31,85,15.4,15.39,0.2,0,0,16.56,13.28,0.2,102.2497,2.848,2.848,2.848,100,0,0,0,186.8,105.7,105.7
"2022-07-22 00:06:00",3035210,2.967333,291.1336,5.030803,0.2818147,3.49,0,1.868,285.0517,8.853619,0.4170084,2.58,0,-999,0,15.31,85.1,15.4,15.4,0.2,0,0,16.56,13.28,0.2,102.2525,2.848,2.848,2.847,100,0,0,0,186.8,105.7,105.7
"2022-07-22 00:07:00",3035211,3.221333,285.8569,5.407852,0.2822261,3.84,0,1.644,281.8885,11.18577,0.4435583,2.33,0,-999,0,15.3,85,15.4,15.39,0.2,0,0,16.56,13.28,0.2,102.2543,2.848,2.848,2.848,100,0,0,0,186.8,105.7,105.7
"2022-07-22 00:08:00",3035212,3.372667,283.0683,3.956745,0.3516716,4.07,0,1.786667,285.5321,8.458643,0.3248726,2.24,0,-999,0,15.31,85,15.4,15.4,0.2,0,0,16.56,13.28,0.2,102.2506,2.848,2.848,2.848,100,0,0,0,186.8,105.7,105.7
"2022-07-22 00:09:00",3035213,3.012666,289.992,6.405361,0.3772262,3.76,0,1.777333,284.9868,17.0702,0.343365,2.62,0,-999,0,15.31,84.8,15.41,15.38,0.2,0,0,16.56,13.28,0.2,102.2527,2.848,2.848,2.847,100,0,0,0,186.8,105.7,105.7
"2022-07-22 00:10:00",3035214,2.65,288.467,5.436913,0.3938866,3.66,0,1.882667,282.3261,9.025572,0.4323959,2.61,0,-999,0,15.31,84.6,15.41,15.36,0.2,0,0,16.56,13.28,0.2,102.2534,2.848,2.848,2.848,100,0,0,0,186.8,105.7,105.7
"2022-07-22 00:11:00",3035215,2.457333,285.6696,7.825374,0.2783395,3.07,0,1.500667,284.3102,10.0705,0.3604712,2.35,0,-999,0,15.33,84.7,15.44,15.39,0.2,0,0,16.56,13.28,0.2,102.253,2.848,2.848,2.848,100,0,0,0,186.8,105.7,105.7
"2022-07-22 00:12:00",3035216,2.924,291.0038,6.768896,0.4738044,3.63,0,1.612667,287.6604,8.36933,0.3914497,2.27,0,-999,0,15.32,84.7,15.46,15.39,0.2,0,0,16.56,13.28,0.2,102.2486,2.848,2.848,2.848,100,0,0,0,186.8,105.7,105.7
"2022-07-22 00:13:00",3035217,2.926666,291.718,7.187115,0.3876539,3.69,0,1.883333,289.483,10.01959,0.2813223,2.43,0,-999,0,15.32,84.8,15.45,15.4,0.2,0,0,16.56,13.28,0.2,102.2501,2.848,2.848,2.847,100,0,0,0,186.8,105.7,105.7
"2022-07-22 00:14:00",3035218,2.796,287.4037,5.870009,0.2100413,3.18,0,1.888,287.2055,15.82437,0.407156,2.66,0,-999,0,15.32,84.9,15.45,15.4,0.2,0,0,16.55,13.28,0.2,102.2525,2.848,2.848,2.847,100,0,0,0,186.8,105.7,105.7
"2022-07-22 00:15:00",3035219,2.696667,290.1591,7.669391,0.295988,3.29,0,1.624667,289.3472,14.3976,0.40297,2.47,0,-999,0,15.32,84.9,15.42,15.41,0.2,0,0,16.54,13.28,0.2,102.251,2.848,2.848,2.847,100,0,0,0,186.8,105.7,105.7
"2022-07-22 00:16:00",3035220,2.987333,289.8667,3.537025,0.2719183,3.5,0,2.048,286.7132,10.45606,0.4094744,2.83,0,-999,0,15.31,84.8,15.4,15.4,0.2,0,0,16.54,13.28,0.2,102.2535,2.848,2.848,2.847,100,0,0,0,186.8,105.7,105.7
"2022-07-22 00:17:00",3035221,2.623333,289.8017,4.748766,0.2977844,3.24,0,1.646667,286.3326,10.69477,0.3262447,2.22,0,-999,0,15.32,84.8,15.41,15.4,0.2,0,0,16.54,13.27,0.2,102.2562,2.848,2.848,2.847,100,0,0,0,186.8,105.7,105.7
"2022-07-22 00:18:00",3035222,2.922,290.7969,3.966831,0.1699098,3.25,0,1.752667,287.4105,11.35122,0.2926993,2.25,0,-999,0,15.31,84.9,15.41,15.4,0.2,0,0,16.54,13.28,0.2,102.2549,2.848,2.848,2.847,100,0,0,0,186.8,105.7,105.7
"2022-07-22 00:19:00",3035223,2.583333,291.132,4.12851,0.2537365,3.03,0,1.239333,292.1467,10.71159,0.2466433,1.68,0,-999,0,15.31,85,15.41,15.41,0.2,0,0,16.54,13.27,0.2,102.2566,2.847,2.848,2.846,100,0,0,0,186.8,105.7,105.7
"2022-07-22 00:20:00",3035224,2.664,291.1282,5.873267,0.2493672,2.99,0,1.117333,288.7421,9.483277,0.2740916,1.64,0,-999,0,15.31,84.9,15.41,15.4,0.2,0,0,16.54,13.28,0.2,102.2548,2.847,2.848,2.846,100,0,0,0,186.8,105.7,105.7
"2022-07-22 00:21:00",3035225,2.528,295.1905,8.089507,0.3325497,3.16,0,1.409333,289.8369,11.2177,0.3407925,1.98,0,-999,0,15.31,84.9,15.41,15.4,0.2,0,0,16.54,13.28,0.2,102.2561,2.847,2.848,2.846,100,0,0,0,186.8,105.7,105.7
"2022-07-22 00:22:00",3035226,2.622,296.3991,5.069303,0.2102443,2.99,0,1.440667,290.0122,8.522166,0.2276977,1.95,0,-999,0,15.31,85,15.4,15.41,0.2,0,0,16.54,13.28,0.2,102.2521,2.846,2.848,2.846,100,0,0,0,186.8,105.7,105.7
"2022-07-22 00:23:00",3035227,2.85,303.5993,3.701231,0.2701112,3.14,0,1.375333,298.8846,13.71393,0.3750176,1.87,0,-999,0,15.3,84.8,15.39,15.38,0.2,0,0,16.52,13.28,0.2,102.2507,2.846,2.847,2.846,100,0,0,0,186.8,105.7,105.7
"2022-07-22 00:24:00",3035228,2.602667,299.4023,5.474032,0.2166861,3.02,0,1.511333,297.7286,6.508786,0.2894101,1.93,0,-999,0,15.3,84.7,15.38,15.37,0.2,0,0,16.51,13.28,0.2,102.2497,2.846,2.847,2.846,100,0,0,0,186.8,105.7,105.7
"2022-07-22 00:25:00",3035229,2.497334,299.2012,6.312765,0.4152825,3.19,0,1.239333,295.3664,16.60163,0.3759338,2.16,0,-999,0,15.3,84.6,15.39,15.37,0.2,0,0,16.51,13.27,0.2,102.2554,2.847,2.847,2.846,100,0,0,0,186.8,105.7,105.7
"2022-07-22 00:26:00",3035230,2.122667,301.8662,5.174177,0.1720258,2.43,0,1.452,296.6409,14.78646,0.4187473,2.29,0,-999,0,15.31,84.5,15.39,15.37,0.2,0,0,16.51,13.28,0.2,102.2597,2.846,2.846,2.846,100,0,0,0,186.8,105.7,105.7
"2022-07-22 00:27:00",3035231,1.888667,298.8202,7.341861,0.2876309,2.2,0,1.285333,300.0045,12.70318,0.3307742,1.9,0,-999,0,15.31,84.5,15.41,15.37,0.2,0,0,16.51,13.27,0.2,102.2504,2.846,2.847,2.846,100,0,0,0,186.8,105.7,105.7
"2022-07-22 00:28:00",3035232,2.110667,300.4748,7.1615,0.2477221,2.6,0,1.162,299.2576,8.477963,0.4652913,1.98,0,-999,0,15.31,84.6,15.4,15.38,0.2,0,0,16.51,13.28,0.2,102.2543,2.847,2.847,2.846,100,0,0,0,186.8,105.7,105.7
"2022-07-22 00:29:00",3035233,2.405334,304.8002,5.821162,0.620407,3.84,0,1.781333,302.0026,6.517705,0.3466577,2.27,0,-999,0,15.31,84.8,15.41,15.4,0.2,0,0,16.51,13.28,0.2,102.2507,2.846,2.848,2.846,100,0,0,0,186.8,105.7,105.7
"2022-07-22 00:30:00",3035234,2.466,300.8062,5.365879,0.4175452,2.96,0,1.302,298.9327,10.37681,0.3102085,1.86,0,-999,0,15.29,84.9,15.41,15.4,0.2,0,0,16.51,13.28,0.2,102.2495,2.846,2.846,2.846,100,0,0,0,186.8,105.7,105.7
"2022-07-22 00:31:00",3035235,2.470667,304.7222,6.119651,0.1347327,2.7,0,1.66,305.5461,8.492085,0.2008316,2.16,0,-999,0,15.29,84.9,15.39,15.38,0.2,0,0,16.51,13.28,0.2,102.2495,2.846,2.846,2.846,100,0,0,0,186.8,105.7,105.7
"2022-07-22 00:32:00",3035236,2.29,303.2632,4.666754,0.2923924,2.73,0,1.318,304.4625,11.82303,0.3279065,1.8,0,-999,0,15.29,84.8,15.39,15.37,0.2,0,0,16.51,13.28,0.2,102.2472,2.846,2.846,2.846,100,0,0,0,186.8,105.7,105.7
"2022-07-22 00:33:00",3035237,2.490667,306.2605,4.459982,0.334753,2.95,0,1.534667,300.2532,12.01536,0.4522811,2.2,0,-999,0,15.29,84.7,15.39,15.37,0.2,0,0,16.51,13.28,0.2,102.2452,2.847,2.847,2.846,100,0,0,0,186.8,105.7,105.7
"2022-07-22 00:34:00",3035238,2.432,305.4648,4.630444,0.3076622,2.89,0,1.106,298.9447,14.85714,0.2745858,1.76,0,-999,0,15.3,84.8,15.39,15.37,0.2,0,0,16.5,13.28,0.2,102.2427,2.846,2.847,2.846,100,0,0,0,186.8,105.7,105.7
"2022-07-22 00:35:00",3035239,2.194,309.0655,4.294833,0.254998,2.6,0,1.251333,312.893,9.87979,0.2663048,1.78,0,-999,0,15.3,84.9,15.39,15.37,0.2,0,0,16.51,13.28,0.2,102.2468,2.846,2.846,2.846,100,0,0,0,186.8,105.7,105.7
"2022-07-22 00:36:00",3035240,2.003333,308.8025,4.444047,0.280349,2.54,0,1.189333,303.8232,8.853159,0.3013628,1.65,0,-999,0,15.28,85.1,15.39,15.37,0.2,0,0,16.5,13.28,0.2,102.2448,2.846,2.846,2.846,100,0,0,0,186.8,105.7,105.7
"2022-07-22 00:37:00",3035241,1.652667,309.4678,3.894731,0.1790146,1.96,0,0.8513333,307.2177,12.86725,0.1759874,1.11,0,-999,0,15.27,85.1,15.39,15.38,0.2,0,0,16.49,13.28,0.2,102.2425,2.846,2.846,2.846,100,0,0,0,186.8,105.7,105.7
"2022-07-22 00:38:00",3035242,2.068667,307.4692,5.286461,0.2032688,2.41,0,1.162667,310.7628,10.7443,0.3094182,1.76,0,-999,0,15.26,85.3,15.38,15.38,0.2,0,0,16.49,13.28,0.2,102.243,2.846,2.846,2.846,100,0,0,0,186.8,105.7,105.7
"2022-07-22 00:39:00",3035243,2.007333,309.8647,4.644328,0.1049105,2.17,0,1.028,308.7506,11.26703,0.2314937,1.37,0,-999,0,15.25,85.1,15.35,15.37,0.2,0,0,16.49,13.28,0.2,102.2439,2.846,2.846,2.846,100,0,0,0,186.8,105.7,105.7
"2022-07-22 00:40:00",3035244,1.940667,306.2661,2.767506,0.1693307,2.31,0,0.8926667,300.6523,11.41811,0.1783804,1.26,0,-999,0,15.26,85.1,15.35,15.37,0.2,0,0,16.49,13.28,0.2,102.2416,2.846,2.846,2.846,100,0,0,0,186.8,105.7,105.7
"2022-07-22 00:41:00",3035245,1.916667,307.3994,3.517027,0.2351076,2.27,0,1.034,304.5303,7.868244,0.3123417,1.49,0,-999,0,15.27,85.2,15.36,15.37,0.2,0,0,16.49,13.28,0.2,102.2446,2.846,2.847,2.846,100,0,0,0,186.8,105.7,105.7
"2022-07-22 00:42:00",3035246,1.894,306.465,3.115714,0.2128474,2.42,0,0.8893334,302.3995,11.62674,0.2029932,1.19,0,-999,0,15.26,85.3,15.37,15.37,0.2,0,0,16.49,13.28,0.2,102.2415,2.846,2.846,2.846,100,0,0,0,186.8,105.7,105.7
"2022-07-22 00:43:00",3035247,1.852,302.9785,8.291716,0.2214257,2.19,0,1.206,301.9178,13.29165,0.2874207,1.56,0,-999,0,15.25,85.4,15.36,15.37,0.2,0,0,16.49,13.27,0.2,102.2448,2.846,2.847,2.846,100,0,0,0,186.8,105.7,105.7
"2022-07-22 00:44:00",3035248,1.946,303.9297,5.009716,0.1669251,2.29,0,1.073333,300.4509,9.393763,0.2588865,1.47,0,-999,0,15.24,85.4,15.35,15.37,0.2,0,0,16.49,13.28,0.2,102.2379,2.846,2.846,2.846,100,0,0,0,186.8,105.7,105.7
"2022-07-22 00:45:00",3035249,1.84,302.4077,4.878718,0.2436938,2.19,0,0.9919999,299.4717,14.06713,0.1970516,1.28,0,-999,0,15.25,85.4,15.35,15.37,0.2,0,0,16.48,13.28,0.2,102.242,2.846,2.846,2.846,100,0,0,0,186.8,105.7,105.7
"2022-07-22 00:46:00",3035250,1.688,300.4153,6.272727,0.166341,2.06,0,0.8780001,291.1754,16.44341,0.2257491,1.37,0,-999,0,15.25,85.5,15.35,15.38,0.2,0,0,16.46,13.28,0.2,102.242,2.846,2.846,2.846,100,0,0,0,186.8,105.7,105.7
"2022-07-22 00:47:00",3035251,1.756667,302.4699,5.437057,0.3326192,2.32,0,1.128,287.9609,16.39982,0.4228506,1.91,0,-999,0,15.23,85.4,15.35,15.37,0.2,0,0,16.46,13.28,0.2,102.2396,2.846,2.846,2.846,100,0,0,0,186.8,105.7,105.7
"2022-07-22 00:48:00",3035252,2.291333,302.4013,3.478436,0.3345816,2.78,0,1.134667,299.8524,17.0414,0.2601761,1.64,0,-999,0,15.25,85.4,15.35,15.37,0.2,0,0,16.46,13.28,0.2,102.2403,2.846,2.846,2.846,100,0,0,0,186.8,105.7,105.7
"2022-07-22 00:49:00",3035253,2.258667,296.1392,5.687425,0.2673292,2.81,0,1.287333,293.8794,10.69073,0.2303466,1.72,0,-999,0,15.24,85.4,15.33,15.36,0.2,0,0,16.46,13.28,0.2,102.2414,2.846,2.846,2.846,100,0,0,0,186.8,105.7,105.7
"2022-07-22 00:50:00",3035254,2.574,289.6654,3.875327,0.3413855,2.92,0,1.45,285.4449,15.01131,0.4233832,2.18,0,-999,0,15.24,85.2,15.33,15.35,0.2,0,0,16.46,13.28,0.2,102.2434,2.846,2.846,2.846,100,0,0,0,186.8,105.7,105.7
"2022-07-22 00:51:00",3035255,2.467333,291.4669,4.36411,0.3555927,3.11,0,1.288667,285.228,11.09094,0.109901,1.5,0,-999,0,15.24,85.1,15.34,15.35,0.2,0,0,16.46,13.28,0.2,102.2366,2.846,2.846,2.846,100,0,0,0,186.8,105.7,105.7
"2022-07-22 00:52:00",3035256,2.186,297.3386,5.661792,0.1418356,2.42,0,1.441333,286.8038,10.92448,0.248163,1.82,0,-999,0,15.25,85,15.35,15.35,0.2,0,0,16.46,13.28,0.2,102.2428,2.846,2.846,2.846,100,0,0,0,186.8,105.7,105.7
"2022-07-22 00:53:00",3035257,2.143333,290.3291,5.011993,0.157593,2.51,0,1.061333,281.9783,11.9746,0.1795501,1.33,0,-999,0,15.24,85.1,15.36,15.35,0.2,0,0,16.46,13.28,0.2,102.2405,2.846,2.846,2.846,100,0,0,0,186.8,105.7,105.7
"2022-07-22 00:54:00",3035258,2.162,289.1205,6.460175,0.2603126,2.6,0,1.344,286.9049,10.44442,0.3165185,1.89,0,-999,0,15.25,85.2,15.36,15.36,0.2,0,0,16.46,13.28,0.2,102.2369,2.846,2.846,2.846,100,0,0,0,186.8,105.7,105.7
"2022-07-22 00:55:00",3035259,2.232,293.52,5.934451,0.1672204,2.58,0,1.052,290.8422,10.74726,0.1819231,1.37,0,-999,0,15.25,85.2,15.35,15.35,0.2,0,0,16.46,13.28,0.2,102.2366,2.846,2.846,2.846,100,0,0,0,186.8,105.7,105.7
"2022-07-22 00:56:00",3035260,1.975333,293.6671,3.379056,0.1736996,2.19,0,0.8846666,283.1713,10.28862,0.2531894,1.4,0,-999,0,15.26,85.2,15.35,15.35,0.2,0,0,16.46,13.28,0.2,102.2386,2.846,2.846,2.846,100,0,0,0,186.8,105.7,105.7
"2022-07-22 00:57:00",3035261,1.848667,293.3367,4.726165,0.1752281,2.15,0,1.027333,291.2989,15.87439,0.2683149,1.57,0,-999,0,15.25,85.3,15.36,15.36,0.2,0,0,16.46,13.28,0.2,102.2359,2.846,2.846,2.846,100,0,0,0,186.8,105.7,105.7
"2022-07-22 00:58:00",3035262,2.15,293.129,4.865738,0.1984943,2.51,0,0.9600001,290.4931,10.21819,0.2636159,1.48,0,-999,0,15.24,85.4,15.35,15.36,0.2,0,0,16.46,13.28,0.2,102.243,2.846,2.846,2.846,100,0,0,0,186.8,105.7,105.7
"2022-07-22 00:59:00",3035263,1.922667,291.1916,7.577649,0.2106962,2.37,0,0.9739999,283.9068,10.89755,0.1941065,1.33,0,-999,0,15.22,85.3,15.35,15.35,0.2,0,0,16.46,13.28,0.2,102.24,2.846,2.846,2.846,100,0,0,0,186.8,105.7,105.7
"2022-07-22 01:00:00",3035264,1.809333,293.0627,5.29424,0.358617,2.56,0,0.8453333,292.7842,16.71705,0.2152167,1.25,0,-999,0,15.23,85.2,15.34,15.35,0.2,0,0,16.46,13.28,0.2,102.2387,2.846,2.846,2.846,100,0,0,0,186.8,105.7,105.7
"2022-07-22 01:01:00",3035265,2.531333,290.8687,3.665373,0.2957897,3.02,0,1.064,281.2397,15.69884,0.2122828,1.4,0,-999,0,15.23,85.2,15.33,15.35,0.2,0,0,16.46,13.28,0.2,102.2325,2.846,2.846,2.846,100,0,0,0,186.8,105.7,105.7
"2022-07-22 01:02:00",3035266,2.674,292.0658,5.868144,0.4060345,3.44,0,1.323333,289.9979,15.15714,0.3466923,2.04,0,-999,0,15.24,85,15.33,15.34,0.2,0,0,16.46,13.28,0.2,102.2389,2.846,2.846,2.846,100,0,0,0,186.8,105.7,105.7
"2022-07-22 01:03:00",3035267,2.688,290.7958,5.632896,0.2702394,3.13,0,1.075333,283.1846,11.04279,0.3114882,1.87,0,-999,0,15.24,84.9,15.33,15.31,0.2,0,0,16.46,13.28,0.2,102.2376,2.846,2.846,2.846,100,0,0,0,186.8,105.7,105.7
"2022-07-22 01:04:00",3035268,2.398667,291.1987,3.744146,0.2192066,2.69,0,1.564667,288.6924,10.788,0.411904,2.37,0,-999,0,15.24,84.9,15.33,15.3,0.2,0,0,16.46,13.27,0.2,102.2361,2.846,2.846,2.846,100,0,0,0,186.8,105.7,105.7
"2022-07-22 01:05:00",3035269,2.270667,296.7951,4.940108,0.1389229,2.48,0,1.32,288.6924,10.98897,0.3701892,1.96,0,-999,0,15.24,84.9,15.33,15.31,0.2,0,0,16.44,13.28,0.2,102.2307,2.846,2.846,2.846,100,0,0,0,186.8,105.7,105.7
"2022-07-22 01:06:00",3035270,2.108,296.6165,8.117121,0.2111303,2.54,0,1.452667,291.7374,10.08331,0.2352719,1.9,0,-999,0,15.23,84.8,15.33,15.3,0.2,0,0,16.44,13.28,0.2,102.2328,2.846,2.846,2.846,100,0,0,0,186.8,105.7,105.7
"2022-07-22 01:07:00",3035271,2.190667,294.2629,5.517354,0.1652661,2.53,0,1.086,289.0403,10.89958,0.2392154,1.63,0,-999,0,15.22,84.8,15.33,15.3,0.2,0,0,16.44,13.28,0.2,102.235,2.846,2.846,2.846,100,0,0,0,186.8,105.7,105.7
"2022-07-22 01:08:00",3035272,2.132,288.731,4.970027,0.1850117,2.39,0,1.024,283.9853,12.29656,0.2954048,1.73,0,-999,0,15.22,84.9,15.33,15.3,0.2,0,0,16.44,13.28,0.2,102.2344,2.846,2.846,2.846,100,0,0,0,186.8,105.7,105.7
"2022-07-22 01:09:00",3035273,2.245333,292.2639,4.248334,0.247679,2.6,0,1.279333,291.5349,10.72637,0.3543721,1.97,0,-999,0,15.22,85,15.33,15.3,0.2,0,0,16.44,13.28,0.2,102.2369,2.846,2.846,2.846,100,0,0,0,186.8,105.7,105.7
"2022-07-22 01:10:00",3035274,2.502667,291.6588,6.380289,0.2071865,2.93,0,1.364,292.5331,14.30279,0.2410201,1.83,0,-999,0,15.22,85,15.33,15.3,0.2,0,0,16.44,13.28,0.2,102.2398,2.846,2.846,2.846,100,0,0,0,186.8,105.7,105.7
"2022-07-22 01:11:00",3035275,2.682667,289.2684,3.712614,0.3242935,3.4,0,1.278667,286.2768,7.670827,0.2283234,1.74,0,-999,0,15.2,85,15.33,15.28,0.2,0,0,16.44,13.28,0.2,102.2292,2.846,2.847,2.846,100,0,0,0,186.8,105.7,105.7
"2022-07-22 01:12:00",3035276,2.667333,287.0664,3.731781,0.2951489,3.16,0,1.768,284.3238,10.84677,0.421461,2.82,0,-999,0,15.2,84.8,15.31,15.28,0.2,0,0,16.44,13.28,0.2,102.2296,2.846,2.846,2.846,100,0,0,0,186.8,105.7,105.7
"2022-07-22 01:13:00",3035277,2.511333,289.3334,4.739917,0.2382398,2.98,0,1.309333,283.9038,9.277763,0.2545183,1.83,0,-999,0,15.2,84.9,15.29,15.28,0.2,0,0,16.43,13.28,0.2,102.2351,2.846,2.847,2.846,100,0,0,0,186.8,105.7,105.7
"2022-07-22 01:14:00",3035278,2.466,292.731,4.696196,0.3074584,3.21,0,1.298,282.4612,11.84748,0.2762897,1.85,0,-999,0,15.21,84.9,15.28,15.28,0.2,0,0,16.41,13.27,0.2,102.2321,2.846,2.848,2.846,100,0,0,0,186.8,105.7,105.7
"2022-07-22 01:15:00",3035279,2.468,290.7354,4.890277,0.2738662,3.13,0,1.354667,290.1031,13.18725,0.2565636,1.87,0,-999,0,15.2,84.8,15.28,15.28,0.2,0,0,16.39,13.28,0.2,102.2356,2.848,2.848,2.846,100,0,0,0,186.8,105.7,105.7
"2022-07-22 01:16:00",3035280,2.388,287.6039,5.311748,0.2117294,2.71,0,1.179333,284.7001,8.642173,0.2676681,1.85,0,-999,0,15.19,84.9,15.3,15.28,0.2,0,0,16.39,13.28,0.2,102.2291,2.847,2.848,2.847,100,0,0,0,186.8,105.7,105.7
"2022-07-22 01:17:00",3035281,2.222,295.9289,5.647309,0.4067464,3.08,0,1.508667,291.2451,11.76805,0.3567607,2.16,0,-999,0,15.19,85,15.28,15.28,0.2,0,0,16.39,13.28,0.2,102.229,2.847,2.848,2.846,100,0,0,0,186.8,105.7,105.7
"2022-07-22 01:18:00",3035282,2.449333,293.732,6.715137,0.3276679,3.26,0,1.416667,295.8355,12.27176,0.3203886,2.01,0,-999,0,15.18,85.1,15.27,15.28,0.2,0,0,16.39,13.28,0.2,102.2291,2.848,2.848,2.847,100,0,0,0,186.8,105.7,105.7
"2022-07-22 01:19:00",3035283,2.695333,298.6055,5.041665,0.2910639,3.21,0,1.513333,294.5358,10.35051,0.2602221,2.02,0,-999,0,15.16,84.8,15.25,15.26,0.2,0,0,16.39,13.28,0.2,102.2311,2.848,2.848,2.848,100,0,0,0,186.8,105.6,105.7
"2022-07-22 01:20:00",3035284,2.366667,303.1983,8.242402,0.2556473,2.85,0,1.412,299.72,14.99365,0.4384397,2.15,0,-999,0,15.17,84.5,15.25,15.23,0.2,0,0,16.39,13.28,0.2,102.2274,2.848,2.848,2.848,100,0,0,0,186.8,105.7,105.7
"2022-07-22 01:21:00",3035285,2.647334,303.2819,5.950599,0.3680846,3.52,0,1.554667,302.3177,11.90238,0.33639,2.1,0,-999,0,15.18,84.5,15.25,15.22,0.2,0,0,16.39,13.28,0.2,102.2262,2.849,2.849,2.848,100,0,0,0,186.8,105.7,105.7
"2022-07-22 01:22:00",3035286,2.759333,305.6533,7.404779,0.3684466,3.52,0,1.581333,305.9412,12.45925,0.4287948,2.57,0,-999,0,15.18,84.5,15.25,15.22,0.2,0,0,16.39,13.27,0.2,102.227,2.85,2.85,2.848,100,0,0,0,186.8,105.7,105.7
"2022-07-22 01:23:00",3035287,2.74,302.1513,7.421957,0.2973662,3.32,0,1.359333,297.6672,11.48077,0.2731414,1.8,0,-999,0,15.18,84.3,15.25,15.21,0.2,0,0,16.38,13.28,0.2,102.227,2.849,2.85,2.849,100,0,0,0,186.8,105.7,105.7
"2022-07-22 01:24:00",3035288,2.584666,303.3971,3.64621,0.1837704,2.93,0,1.232667,298.9568,10.3928,0.266645,1.64,0,-999,0,15.17,84.3,15.25,15.21,0.2,0,0,16.36,13.28,0.2,102.2283,2.85,2.85,2.849,100,0,0,0,186.8,105.7,105.7
"2022-07-22 01:25:00",3035289,2.777333,307.201,2.481104,0.2558246,3.25,0,1.263333,303.6118,11.02339,0.4285272,2.06,0,-999,0,15.16,84.5,15.25,15.21,0.2,0,0,16.36,13.28,0.2,102.2296,2.85,2.85,2.85,100,0,0,0,186.8,105.7,105.7
"2022-07-22 01:26:00",3035290,2.616667,306.1367,6.268349,0.3342388,3.19,0,1.134667,306.5188,15.52047,0.3006186,1.77,0,-999,0,15.14,84.6,15.24,15.2,0.2,0,0,16.36,13.28,0.2,102.2332,2.85,2.85,2.85,100,0,0,0,186.8,105.7,105.7
"2022-07-22 01:27:00",3035291,2.788667,305.4,2.98409,0.4300211,3.4,0,1.060667,304.6704,9.503805,0.2130874,1.41,0,-999,0,15.13,84.6,15.21,15.2,0.2,0,0,16.34,13.27,0.2,102.2318,2.85,2.85,2.85,100,0,0,0,186.8,105.7,105.7
"2022-07-22 01:28:00",3035292,2.754667,305.9369,7.731873,0.3104376,3.25,0,1.394,305.5819,15.06048,0.291863,1.95,0,-999,0,15.12,84.6,15.18,15.19,0.2,0,0.254,16.34,13.28,0.2,102.23,2.852,2.852,2.852,100,0,0,0,186.8,105.7,105.7
"2022-07-22 01:29:00",3035293,2.608666,308.2028,4.487572,0.320372,3.27,0,1.643333,312.1885,10.45368,0.3831217,2.21,0,-999,0,15.1,84.5,15.18,15.15,0.2,0,0,16.34,13.28,0.2,102.2272,2.852,2.852,2.852,100,0,0,0,186.8,105.6,105.7
"2022-07-22 01:30:00",3035294,2.762,302.6128,5.935697,0.3596703,3.26,0,1.225333,298.5167,14.93999,0.2232746,1.63,0,-999,0,15.09,84.5,15.17,15.12,0.2,0,0,16.34,13.28,0.2,102.2308,2.853,2.853,2.852,100,0,0,0,186.8,105.6,105.7
"2022-07-22 01:31:00",3035295,2.687333,305.8781,6.132134,0.2832541,3.33,0,1.651333,300.1783,11.48645,0.4196803,2.32,0,-999,0,15.09,84.5,15.17,15.13,0.2,0,0,16.33,13.28,0.2,102.2326,2.854,2.854,2.853,100,0,0,0,186.8,105.6,105.6
"2022-07-22 01:32:00",3035296,3.033333,304.5451,7.21102,0.2883902,3.34,0,1.623333,301.812,7.954188,0.3906519,2.38,0,-999,0,15.08,84.6,15.17,15.13,0.2,0,0,16.33,13.28,0.2,102.2304,2.854,2.854,2.854,100,0,0,0,186.8,105.7,105.6
"2022-07-22 01:33:00",3035297,3.494,302.0078,4.698812,0.4729031,4.46,0,2.078667,300.3494,11.30289,0.6299403,3.66,0,-999,0,15.07,84.6,15.17,15.13,0.2,0,0,16.32,13.28,0.2,102.2305,2.855,2.855,2.854,100,0,0,0,186.8,105.6,105.6
"2022-07-22 01:34:00",3035298,3.456,304.5357,3.737641,0.4951067,4.29,0,1.712,301.4013,8.809704,0.4661358,2.41,0,-999,0,15.09,84.4,15.18,15.13,0.2,0,0,16.31,13.28,0.2,102.2326,2.856,2.856,2.854,100,0,0,0,186.8,105.7,105.6
"2022-07-22 01:35:00",3035299,3.144,304.9342,3.3747,0.3471369,3.61,0,1.636,305.0757,7.818762,0.2750709,2.16,0,-999,0,15.12,84.4,15.19,15.13,0.2,0,0,16.29,13.28,0.2,102.2342,2.855,2.856,2.855,100,0,0,0,186.8,105.6,105.6
"2022-07-22 01:36:00",3035300,2.71,303.8012,4.3388,0.2980828,3.19,0,2.014667,297.7,9.334131,0.483775,3.07,0,-999,0,15.12,84.5,15.19,15.15,0.2,0,0,16.29,13.28,0.2,102.2311,2.856,2.856,2.854,100,0,0,0,186.8,105.6,105.6
"2022-07-22 01:37:00",3035301,2.891334,309.8662,3.666658,0.382777,3.57,0,1.769333,301.0579,11.33174,0.4847057,2.78,0,-999,0,15.1,84.6,15.19,15.15,0.2,0,0,16.29,13.28,0.2,102.2328,2.856,2.856,2.856,100,0,0,0,186.8,105.7,105.6
"2022-07-22 01:38:00",3035302,2.466667,306.3384,5.518693,0.4109284,3.27,0,1.666667,304.8755,10.00259,0.4579034,2.65,0,-999,0,15.11,84.7,15.18,15.16,0.2,0,0,16.28,13.28,0.2,102.2335,2.856,2.856,2.856,100,0,0,0,186.8,105.6,105.6
"2022-07-22 01:39:00",3035303,2.727333,305.8,2.761444,0.3050785,3.27,0,1.555333,302.6089,6.687965,0.2677279,1.92,0,-999,0,15.09,84.6,15.17,15.14,0.2,0,0,16.27,13.28,0.2,102.233,2.857,2.857,2.856,100,0,0,0,186.8,105.6,105.6
"2022-07-22 01:40:00",3035304,2.762,303.8666,4.144725,0.4586385,3.45,0,1.564667,299.9828,7.758392,0.4759112,2.59,0,-999,0,15.08,84.7,15.18,15.15,0.2,0,0,16.27,13.27,0.2,102.2318,2.858,2.858,2.857,100,0,0,0,186.8,105.6,105.6
"2022-07-22 01:41:00",3035305,3.422,308.3422,5.456947,0.4660072,4.06,0,1.402667,307.1525,14.87057,0.4169807,2.42,0,-999,0,15.07,84.7,15.17,15.16,0.2,0,0,16.27,13.28,0.2,102.233,2.858,2.858,2.857,100,0,0,0,186.8,105.6,105.6
"2022-07-22 01:42:00",3035306,2.506667,300.2034,4.604705,0.2332,2.92,0,1.496666,287.2135,11.12979,0.5025225,2.59,0,-999,0,15.08,84.6,15.18,15.15,0.2,0,0,16.26,13.28,0.2,102.2309,2.858,2.858,2.857,100,0,0,0,186.8,105.6,105.6
"2022-07-22 01:43:00",3035307,2.734667,297.5324,5.286014,0.2220471,3.14,0,1.346,294.1739,12.65647,0.2318275,1.72,0,-999,0,15.09,84.6,15.19,15.18,0.2,0,0,16.24,13.28,0.2,102.2284,2.858,2.858,2.858,100,0,0,0,186.8,105.6,105.6
"2022-07-22 01:44:00",3035308,2.736667,298.0174,7.824091,0.2504041,3.31,0,1.66,292.3893,11.10493,0.3463717,2.39,0,-999,0,15.09,84.6,15.19,15.2,0.2,0,0,16.24,13.28,0.2,102.2337,2.858,2.858,2.857,100,0,0,0,186.8,105.6,105.6
"2022-07-22 01:45:00",3035309,2.919333,302.7355,4.551136,0.2311844,3.27,0,1.622,294.8792,11.27457,0.4489573,2.49,0,-999,0,15.11,84.6,15.19,15.2,0.2,0,0,16.24,13.27,0.2,102.2309,2.858,2.858,2.858,100,0,0,0,186.8,105.6,105.6
"2022-07-22 01:46:00",3035310,2.819333,300.6669,2.520669,0.2304044,3.26,0,1.399333,299.7359,9.015873,0.292038,2.03,0,-999,0,15.11,84.5,15.19,15.19,0.2,0,0,16.24,13.28,0.2,102.2304,2.858,2.858,2.858,100,0,0,0,186.8,105.6,105.6
"2022-07-22 01:47:00",3035311,2.581333,301.7316,4.478102,0.2577044,2.91,0,1.270667,298.492,12.32586,0.3495801,1.94,0,-999,0,15.11,84.4,15.2,15.19,0.2,0,0,16.24,13.28,0.2,102.2283,2.858,2.858,2.858,100,0,0,0,186.8,105.6,105.6